Weather History for La Porte, IN

Change the Weather History Date:

Monday, January 21, 2013

  Actual Average (KVPZ) Record (KVPZ)
Temperature  
Mean Temperature 11 °F 23 °F  
Max Temperature 16 °F 31 °F 62 °F (1999)
Min Temperature 6 °F 16 °F -7 °F (2000)
Degree Days  
Heating Degree Days 54 42  
Month to date heating degree days 873  
Since 1 July heating degree days 3275  
Cooling Degree Days 0 0  
Month to date cooling degree days 0  
Year to date cooling degree days 0  
Moisture  
Dew Point 0 °F    
Average Humidity 62    
Maximum Humidity 83    
Minimum Humidity 50    
Precipitation  
Precipitation 0.00 in 0.06 in 0.15 in (2010)
Month to date precipitation 1.15  
Year to date precipitation 1.15  
Sea Level Pressure  
Sea Level Pressure 30.14 in    
Wind  
Wind Speed 13 mph (West)    
Max Wind Speed 21 mph    
Max Gust Speed 31 mph    
Visibility 8 miles    
Events Snow    
T = Trace of Precipitation, MM = Missing Value Source: NWS Daily Summary

Daily Weather History Graph

Daily Weather History Graph

Search for Another Location

Airport:

Trip Planner

Search our weather history database for the weather conditions in past years. The results will help you decide how hot, cold, wet, or windy it might be!

Date:

Astronomy

Jan. 21, 2013 Rise Set
Actual Time 7:07 AM CST 4:49 PM CST
Civil Twilight 6:37 AM CST 5:19 PM CST
Nautical Twilight 6:03 AM CST 5:53 PM CST
Astronomical Twilight 5:30 AM CST 6:26 PM CST
Moon 12:28 PM CST (1/21) 2:35 AM CST (1/21)
Length of Visible Light 10h 41m
Length of Day
9h 41m
Waxing Gibbous, 75% of the Moon is Illuminated
Jan 21
Waxing Gibbous
Jan 26
Full
Feb 3
Last Quarter
Feb 10
New
Feb 17
First Quarter

Hourly Weather History & Observations

Time (CST) Temp. Windchill Dew Point Humidity Pressure Visibility Wind Dir Wind Speed Gust Speed Precip Events Conditions
12:15 AM 16.3 °F 3.4 °F 1.9 °F 53% 30.16 in 10.0 mi West 11.5 mph 16.1 mph N/A   Overcast
12:35 AM 16.0 °F 3.6 °F 1.4 °F 53% 30.16 in 10.0 mi West 10.4 mph - N/A   Overcast
12:55 AM 15.4 °F 3.0 °F 1.4 °F 54% 30.15 in 10.0 mi West 10.4 mph 16.1 mph N/A   Overcast
1:15 AM 14.7 °F 3.8 °F 1.4 °F 56% 30.15 in 10.0 mi West 8.1 mph - N/A   Overcast
1:35 AM 14.9 °F 3.1 °F 1.6 °F 56% 30.15 in 10.0 mi West 9.2 mph - N/A   Overcast
1:55 AM 15.4 °F 3.0 °F 2.1 °F 56% 30.14 in 10.0 mi West 10.4 mph - N/A   Overcast
2:15 AM 15.3 °F 0.8 °F 3.2 °F 59% 30.14 in 10.0 mi West 13.8 mph 19.6 mph N/A   Overcast
2:35 AM 14.5 °F 0.5 °F 4.1 °F 63% 30.14 in 10.0 mi West 12.7 mph - N/A   Overcast
2:55 AM 14.4 °F 2.4 °F 4.1 °F 64% 30.13 in 10.0 mi West 9.2 mph - N/A   Overcast
3:15 AM 14.2 °F -0.6 °F 2.8 °F 61% 30.12 in 10.0 mi West 13.8 mph 18.4 mph N/A   Mostly Cloudy
3:35 AM 14.0 °F 1.2 °F 3.2 °F 62% 30.12 in 10.0 mi West 10.4 mph 16.1 mph N/A   Mostly Cloudy
3:55 AM 14.0 °F -1.4 °F 2.5 °F 60% 30.11 in 10.0 mi West 15.0 mph 19.6 mph N/A   Overcast
4:15 AM 13.1 °F 1.8 °F 4.1 °F 67% 30.11 in 5.0 mi WNW 8.1 mph 25.3 mph N/A   Haze
4:55 AM 13.1 °F -1.4 °F 3.7 °F 66% 30.11 in 10.0 mi West 12.7 mph 18.4 mph N/A   Overcast
5:15 AM 12.2 °F -2.5 °F 3.9 °F 69% 30.11 in 10.0 mi West 12.7 mph 18.4 mph N/A   Overcast
5:35 AM 12.2 °F -2.5 °F 2.7 °F 66% 30.10 in 10.0 mi West 12.7 mph 20.7 mph N/A   Overcast
5:55 AM 11.8 °F -3.6 °F 3.6 °F 69% 30.11 in 7.0 mi West 13.8 mph - N/A Snow Light Snow
6:15 AM 11.3 °F -2.2 °F 5.7 °F 78% 30.11 in 2.5 mi West 10.4 mph - N/A Snow Light Snow
6:35 AM 11.3 °F -2.9 °F 5.9 °F 79% 30.10 in 2.0 mi West 11.5 mph - N/A Snow Light Snow
6:55 AM 11.1 °F -5.1 °F 7.0 °F 83% 30.11 in 2.0 mi West 15.0 mph - N/A Snow Light Snow
7:15 AM 11.3 °F -2.2 °F 6.8 °F 82% 30.10 in 4.0 mi West 10.4 mph - N/A Snow Light Snow
7:35 AM 11.3 °F -2.2 °F 6.4 °F 81% 30.11 in 4.0 mi West 10.4 mph 17.3 mph N/A Snow Light Snow
7:55 AM 11.8 °F -0.7 °F 2.3 °F 66% 30.11 in 10.0 mi WNW 9.2 mph - N/A   Overcast
8:15 AM 12.0 °F -3.4 °F 4.5 °F 72% 30.11 in 7.0 mi West 13.8 mph - N/A Snow Light Snow
8:35 AM 12.2 °F -3.7 °F 4.6 °F 72% 30.11 in 5.0 mi West 15.0 mph 19.6 mph N/A Snow Light Snow
8:55 AM 12.2 °F -4.3 °F 5.4 °F 74% 30.11 in 1.5 mi West 16.1 mph 20.7 mph N/A Snow Light Snow
9:15 AM 12.0 °F -1.3 °F 4.1 °F 71% 30.12 in 1.5 mi WNW 10.4 mph 23.0 mph N/A Snow Light Snow
9:35 AM 12.6 °F -4.4 °F 5.5 °F 74% 30.12 in 2.0 mi West 17.3 mph 24.2 mph N/A Snow Light Snow
9:55 AM 12.0 °F -2.0 °F 5.0 °F 73% 30.13 in 1.5 mi WNW 11.5 mph 20.7 mph N/A Snow Light Snow
10:15 AM 11.1 °F -3.2 °F 1.0 °F 64% 30.13 in 7.0 mi WNW 11.5 mph 20.7 mph N/A   Mostly Cloudy
10:35 AM 12.9 °F -3.9 °F 1.8 °F 61% 30.12 in 10.0 mi WNW 17.3 mph 27.6 mph N/A   Scattered Clouds
10:55 AM 11.3 °F -2.2 °F 2.7 °F 68% 30.13 in 2.5 mi WNW 10.4 mph 23.0 mph N/A Snow Light Snow
11:15 AM 12.0 °F -0.4 °F 2.5 °F 66% 30.11 in 5.0 mi WNW 9.2 mph 20.7 mph N/A   Haze
11:35 AM 13.1 °F -2.6 °F 0.3 °F 57% 30.11 in 10.0 mi West 15.0 mph 26.5 mph N/A   Mostly Cloudy
11:55 AM 12.7 °F -2.5 °F 0.1 °F 57% 30.11 in 10.0 mi WNW 13.8 mph 24.2 mph N/A   Mostly Cloudy
12:15 PM 10.9 °F -7.0 °F 2.8 °F 70% 30.11 in 4.0 mi West 18.4 mph 26.5 mph N/A Snow Light Snow
12:35 PM 10.0 °F -6.5 °F -0.6 °F 62% 30.11 in 5.0 mi West 15.0 mph 28.8 mph N/A   Haze
12:55 PM 10.6 °F -5.2 °F -2.7 °F 55% 30.12 in 10.0 mi WNW 13.8 mph 25.3 mph N/A   Mostly Cloudy
1:15 PM 10.2 °F -6.9 °F -2.4 °F 57% 30.12 in 10.0 mi WNW 16.1 mph 24.2 mph N/A   Mostly Cloudy
1:35 PM 10.8 °F -6.2 °F -1.3 °F 58% 30.12 in 7.0 mi WNW 16.1 mph 23.0 mph N/A   Overcast
1:55 PM 11.1 °F -7.7 °F 0.3 °F 62% 30.13 in 5.0 mi West 20.7 mph 28.8 mph N/A   Haze
2:15 PM 10.4 °F -8.2 °F -1.7 °F 58% 30.13 in 10.0 mi WNW 19.6 mph 27.6 mph N/A   Mostly Cloudy
2:35 PM 10.0 °F -4.5 °F -2.4 °F 57% 30.14 in 10.0 mi WNW 11.5 mph 26.5 mph N/A   Mostly Cloudy
2:55 PM 10.2 °F -5.7 °F -3.3 °F 55% 30.14 in 10.0 mi West 13.8 mph 26.5 mph N/A   Overcast
3:15 PM 10.4 °F -4.1 °F -2.7 °F 55% 30.15 in 10.0 mi WNW 11.5 mph 25.3 mph N/A   Overcast
3:35 PM 10.2 °F -7.4 °F -2.7 °F 56% 30.15 in 10.0 mi West 17.3 mph 21.9 mph N/A   Mostly Cloudy
3:55 PM 10.0 °F -5.9 °F -3.1 °F 55% 30.15 in 10.0 mi West 13.8 mph 25.3 mph N/A   Overcast
4:15 PM 10.2 °F -3.5 °F -3.8 °F 53% 30.15 in 10.0 mi WNW 10.4 mph 20.7 mph N/A   Mostly Cloudy
4:35 PM 9.5 °F -5.2 °F -4.0 °F 54% 30.15 in 10.0 mi WNW 11.5 mph 24.2 mph N/A   Overcast
4:55 PM 10.0 °F -6.5 °F -3.8 °F 54% 30.16 in 10.0 mi West 15.0 mph 20.7 mph N/A   Overcast
5:15 PM 9.5 °F -7.2 °F -4.2 °F 54% 30.16 in 10.0 mi WNW 15.0 mph 23.0 mph N/A   Overcast
5:35 PM 9.1 °F -5.6 °F -4.0 °F 55% 30.16 in 10.0 mi West 11.5 mph 17.3 mph N/A   Overcast
5:55 PM 9.1 °F -7.7 °F -6.2 °F 50% 30.16 in 10.0 mi West 15.0 mph 21.9 mph N/A   Overcast
6:15 PM 8.8 °F -7.5 °F -6.5 °F 50% 30.16 in 10.0 mi West 13.8 mph - N/A   Overcast
6:35 PM 9.0 °F -6.6 °F -6.2 °F 50% 30.17 in 10.0 mi West 12.7 mph 20.7 mph N/A   Overcast
6:55 PM 9.0 °F -7.9 °F -5.1 °F 53% 30.17 in 10.0 mi West 15.0 mph 25.3 mph N/A   Overcast
7:15 PM 9.0 °F -5.1 °F -4.9 °F 53% 30.17 in 10.0 mi WNW 10.4 mph 26.5 mph N/A   Overcast
7:35 PM 8.8 °F -9.3 °F -5.3 °F 53% 30.18 in 10.0 mi West 17.3 mph 24.2 mph N/A   Overcast
7:55 PM 8.6 °F -5.5 °F -4.7 °F 55% 30.18 in 10.0 mi WNW 10.4 mph 21.9 mph N/A   Overcast
8:15 PM 8.6 °F -10.5 °F -4.5 °F 55% 30.19 in 10.0 mi West 19.6 mph 24.2 mph N/A   Overcast
8:35 PM 8.2 °F -6.8 °F -4.0 °F 58% 30.19 in 7.0 mi WNW 11.5 mph 21.9 mph N/A   Overcast
8:55 PM 8.1 °F -8.4 °F -4.7 °F 56% 30.20 in 10.0 mi West 13.8 mph 21.9 mph N/A   Overcast
9:15 PM 8.1 °F -9.6 °F -4.5 °F 57% 30.20 in 10.0 mi West 16.1 mph 21.9 mph N/A   Overcast
9:35 PM 7.7 °F -11.2 °F -4.5 °F 57% 30.20 in 10.0 mi West 18.4 mph 26.5 mph N/A   Overcast
9:55 PM 7.7 °F -10.7 °F -4.2 °F 58% 30.20 in 10.0 mi West 17.3 mph 24.2 mph N/A   Overcast
10:15 PM 7.3 °F -10.6 °F -3.3 °F 62% 30.21 in 7.0 mi West 16.1 mph 31.1 mph N/A   Overcast
10:35 PM 7.2 °F -9.6 °F -4.0 °F 60% 30.21 in 10.0 mi WNW 13.8 mph 26.5 mph N/A   Overcast
10:55 PM 7.0 °F -12.6 °F -3.6 °F 62% 30.21 in 7.0 mi West 19.6 mph 27.6 mph N/A   Overcast
11:15 PM 6.3 °F -9.2 °F -2.4 °F 68% 30.21 in 4.0 mi WNW 11.5 mph 23.0 mph N/A Snow Light Snow
11:35 PM 6.3 °F -12.0 °F -2.9 °F 66% 30.22 in 5.0 mi West 16.1 mph 25.3 mph N/A Snow Light Snow
11:55 PM 6.3 °F -9.2 °F -3.1 °F 65% 30.22 in 7.0 mi West 11.5 mph 21.9 mph N/A   Overcast